Regional Weather Roundup
Issued by NWS

Home | Current Version | Previous Version | Graphics & Text | Print | Product List | Glossary On
Versions: 1 2 3 4 5 6 7 8 9 10 11 12 13 14 15 16 17 18 19 20 21 22 23 24 25 26 27 28 29 30 31 32 33 34 35 36 37 38 39 40 41 42 43 44 45 46 47 48 49 50
000
ASUS43 KOAX 041902
RWRNE

WEATHER ROUNDUP FOR NEBRASKA
NATIONAL WEATHER SERVICE OMAHA NE
200 PM CDT MON MAY 04 2015

NOTES: SATELLITE DATA IS BEING USED TO AUGMENT CLOUD COVER ABOVE
       12000 FEET.
       "FAIR" INDICATES FEW OR NO CLOUDS BELOW 12,000 FEET WITH NO
       SIGNIFICANT WEATHER AND/OR OBSTRUCTIONS TO VISIBILITY.

  * THESE STATIONS DO NOT REPORT WEATHER SUCH AS RAIN...SNOW OR FOG.

NEZ001>004-019>022-054>056-042000-
NEBRASKA PANHANDLE

CITY           SKY/WX    TMP DP  RH WIND       PRES   REMARKS
SCOTTSBLUFF    CLOUDY    55  35  47 E13       30.15F
ALLIANCE       CLOUDY    55  33  43 E13       30.16F
CHADRON        CLOUDY    52  39  61 E8        30.18F
KIMBALL        LGT RAIN  51  42  73 E6        30.13F
SIDNEY         CLOUDY    60  41  49 NE13G20   30.14F
$$

NEZ057>060-069>072-079>082-042000-
SOUTHWEST NEBRASKA

CITY           SKY/WX    TMP DP  RH WIND       PRES   REMARKS
NORTH PLATTE   CLOUDY    54  39  57 E20       30.14R
IMPERIAL       LGT RAIN  53  46  77 NE6       30.14R
MCCOOK         CLOUDY    58  42  55 NE17      30.11F
$$

NEZ005>010-023>029-035>040-094-042000-
NORTH CENTRAL NEBRASKA

CITY           SKY/WX    TMP DP  RH WIND       PRES   REMARKS
VALENTINE      LGT RAIN  66  24  20 E17       30.18F
AINSWORTH      CLOUDY    66  26  21 NE10G17   30.16F
BROKEN BOW     CLOUDY    63  29  27 NE20      30.12F
ORD            CLOUDY    65  36  34 E15G23    30.11F
$$

NEZ041-046>049-061>064-073>077-083>087-042000-
SOUTH CENTRAL NEBRASKA

CITY           SKY/WX    TMP DP  RH WIND       PRES   REMARKS
GRAND ISLAND   LGT RAIN  53  50  89 NE13      30.11S FOG
AURORA         DRIZZLE   56  52  85 NE16      30.10F
HASTINGS       CLOUDY    55  50  83 NE14      30.09S
KEARNEY *      CLOUDY    55  45  67 NE21      30.11S
$$

NEZ011>018-030>034-042>045-042000-
NORTHEAST NEBRASKA

CITY           SKY/WX    TMP DP  RH WIND       PRES   REMARKS
NORFOLK        CLOUDY    66  39  37 E14G22    30.12F
COLUMBUS *     CLOUDY    57  46  67 NE15      30.13S
TEKAMAH        CLOUDY    69  47  45 NE14      30.10F
$$

NEZ050>053-065>068-078-088>093-042000-
SOUTHEAST NEBRASKA

CITY           SKY/WX    TMP DP  RH WIND       PRES   REMARKS
LINCOLN        LGT RAIN  60  54  80 N8        30.10R
OMAHA EPPLEY   LGT RAIN  66  57  72 N7        30.07F
FALLS CITY     LGT RAIN  78  63  59 E9        30.02F
NEBRASKA CITY  CLOUDY    64  58  81 NE5       30.08S
PLATTSMOUTH    CLOUDY    64  56  77 NE5       30.10R
$$

NEZ044-045-051>053-067-042000-
OMAHA AREA

CITY           SKY/WX    TMP DP  RH WIND       PRES   REMARKS
OMAHA EPPLEY   LGT RAIN  66  57  72 N7        30.07F
OFFUTT AFB     LGT RAIN  65  58  78 E5        30.08R
PLATTSMOUTH    CLOUDY    64  56  77 NE5       30.10R
$$


USA.gov is the U.S. government's official web portal to all federal, state and local government web resources and services.